FW8891 Weather Reports


Display with metric or nautical units.
time (UTC)temp
F
wind
direction
speed
MPH
gust
MPH
rain 1hr
in
rain 24hr
in
rain mn
in
humidity
%
barometer
mb
20260505180058 75 162 3.0 13.0 0.00 0.00 0.00 39 1012.3
20260505175559 76 119 4.0 13.0 0.00 0.00 0.00 39 1012.4
20260505175059 75 179 4.0 13.0 0.00 0.00 0.00 38 1012.3
20260505174602 75 308 3.0 13.0 0.00 0.00 0.00 39 1012.3
20260505174059 75 137 5.0 13.0 0.00 0.00 0.00 39 1012.3
20260505173558 75 147 3.0 9.0 0.00 0.00 0.00 39 1012.3
20260505173100 75 240 4.0 9.0 0.00 0.00 0.00 39 1012.3
20260505172558 74 191 1.0 7.0 0.00 0.00 0.00 39 1012.2
20260505172058 74 217 1.0 8.0 0.00 0.00 0.00 39 1012.2
20260505171605 73 129 4.0 8.0 0.00 0.00 0.00 41 1012.3
20260505171059 72 144 4.0 8.0 0.00 0.00 0.00 41 1012.3
20260505170558 73 174 3.0 6.0 0.00 0.00 0.00 40 1012.3
20260505170059 73 255 3.0 6.0 0.00 0.00 0.00 40 1012.3
20260505165558 74 226 1.0 10.0 0.00 0.00 0.00 39 1012.3
20260505165058 74 200 5.0 10.0 0.00 0.00 0.00 38 1012.3
20260505164622 73 155 0.0 5.0 0.00 0.00 0.00 39 1012.2
20260505164100 71 127 1.0 5.0 0.00 0.00 0.00 39 1012.1
20260505163559 71 145 2.0 5.0 0.00 0.00 0.00 39 1012.2
20260505163107 72 130 2.0 4.0 0.00 0.00 0.00 38 1012.2
20260505162559 72 117 1.0 3.0 0.00 0.00 0.00 38 1012.3
20260505162059 72 94 0.0 3.0 0.00 0.00 0.00 38 1012.2
20260505161614 72 0 1.0 3.0 0.00 0.00 0.00 38 1012.3
20260505161059 72 143 1.0 5.0 0.00 0.00 0.00 38 1012.3
20260505160559 71 261 2.0 5.0 0.00 0.00 0.00 39 1012.4
20260505153107 67 324 0.0 3.0 0.00 0.00 0.00 48 1012.4
20260505152558 67 291 1.0 3.0 0.00 0.00 0.00 49 1012.5
20260505152058 66 262 1.0 3.0 0.00 0.00 0.00 49 1012.5
20260505151558 66 0 0.0 3.0 0.00 0.00 0.00 49 1012.5
20260505151102 66 0 0.0 4.0 0.00 0.00 0.00 49 1012.5
20260505150559 66 172 1.0 4.0 0.00 0.00 0.00 50 1012.5
20260505140559 64 0 0.0 0.0 0.00 0.00 0.00 60 1012.0
20260505130113 62 0 0.0 0.0 0.00 0.00 0.00 63 1011.7
20260505124605 62 0 0.0 1.0 0.00 0.00 0.00 63 1011.4
20260505124058 62 0 0.0 3.0 0.00 0.00 0.00 63 1011.4
20260505123558 62 0 1.0 3.0 0.00 0.00 0.00 63 1011.4
20260505123110 62 151 0.0 3.0 0.00 0.00 0.00 63 1011.5
20260505122558 62 0 1.0 3.0 0.00 0.00 0.00 62 1011.4
20260505122058 62 221 1.0 5.0 0.00 0.00 0.00 62 1011.4
20260505121559 62 146 1.0 5.0 0.00 0.00 0.00 62 1011.3
20260505121103 62 150 2.0 5.0 0.00 0.00 0.00 62 1011.3
20260505120559 62 188 2.0 4.0 0.00 0.00 0.00 62 1011.2
20260505120116 62 200 2.0 5.0 0.00 0.00 0.00 62 1011.2
20260505115558 63 150 2.0 5.0 0.00 0.00 0.00 62 1011.1
20260505115102 63 200 2.0 4.0 0.00 0.00 0.00 61 1011.1
20260505114603 63 141 2.0 6.0 0.00 0.00 0.00 61 1011.1
20260505114058 63 166 2.0 6.0 0.00 0.00 0.00 60 1011.1
20260505113557 63 139 2.0 5.0 0.00 0.00 0.00 60 1011.1
20260505113105 64 140 3.0 6.0 0.00 0.00 0.00 60 1011.0
20260505112601 64 126 2.0 6.0 0.00 0.00 0.00 59 1010.9
20260505112059 64 115 2.0 5.0 0.00 0.00 0.00 59 1011.0
20260505111602 64 134 2.0 5.0 0.00 0.00 0.00 59 1010.9
20260505111059 64 146 2.0 6.0 0.00 0.00 0.00 58 1010.9
20260505110559 65 127 3.0 6.0 0.00 0.00 0.00 58 1010.9
20260505110123 65 94 3.0 7.0 0.00 0.00 0.00 57 1011.0
20260505102059 66 166 1.0 5.0 0.00 0.00 0.00 55 1011.3
20260505101603 66 125 2.0 5.0 0.00 0.00 0.00 54 1011.5
20260505101059 66 160 1.0 5.0 0.00 0.00 0.00 54 1011.4
20260505100601 66 141 2.0 5.0 0.00 0.00 0.00 54 1011.4
20260505100059 67 108 3.0 6.0 0.00 0.00 0.00 54 1011.5
20260505095558 67 180 2.0 6.0 0.00 0.00 0.00 54 1011.6
20260505095059 67 141 2.0 5.0 0.00 0.00 0.00 54 1011.6
20260505094559 67 167 2.0 5.0 0.00 0.00 0.00 53 1011.7
20260505094058 67 131 2.0 8.0 0.00 0.00 0.00 53 1011.7
20260505093558 67 214 4.0 11.0 0.00 0.00 0.00 53 1011.8
20260505093108 67 169 5.0 11.0 0.00 0.00 0.00 53 1011.8
20260505092558 67 236 6.0 10.0 0.00 0.00 0.00 53 1011.9
20260505092100 68 173 6.0 10.0 0.00 0.00 0.00 54 1011.9
20260505091556 68 210 4.0 9.0 0.00 0.00 0.00 54 1011.9
20260505091058 68 148 6.0 9.0 0.00 0.00 0.00 53 1011.9
20260505090559 68 230 3.0 10.0 0.00 0.00 0.00 53 1012.0
20260505090056 68 183 3.0 10.0 0.00 0.00 0.00 53 1012.0
20260505085559 68 236 4.0 9.0 0.00 0.00 0.00 53 1012.0
20260505085058 68 231 4.0 10.0 0.00 0.00 0.00 53 1012.2
20260505084559 68 210 5.0 11.0 0.00 0.00 0.00 53 1012.2
20260505084059 68 188 6.0 11.0 0.00 0.00 0.00 52 1012.2
20260505083558 69 169 6.0 11.0 0.00 0.00 0.00 49 1012.2
20260505083058 69 179 4.0 7.0 0.00 0.00 0.00 40 1012.3
20260505082602 69 179 3.0 7.0 0.00 0.00 0.00 38 1012.4
20260505082059 69 178 4.0 7.0 0.00 0.00 0.00 39 1012.4
20260505081618 69 205 3.0 6.0 0.00 0.00 0.00 39 1012.4
20260505081059 68 188 3.0 5.0 0.00 0.00 0.00 40 1012.4
20260505080558 68 210 2.0 5.0 0.00 0.00 0.00 40 1012.6
20260505080109 68 166 2.0 5.0 0.00 0.00 0.00 41 1012.4
20260505075558 68 170 2.0 4.0 0.00 0.00 0.00 42 1012.5
20260505075058 68 266 2.0 4.0 0.00 0.00 0.00 44 1012.5
20260505074557 68 163 1.0 2.0 0.00 0.00 0.00 46 1012.5
20260505074058 68 0 0.0 1.0 0.00 0.00 0.00 47 1012.4
20260505073558 68 0 0.0 0.0 0.00 0.00 0.00 46 1012.3
20260505073058 68 0 0.0 0.0 0.00 0.00 0.00 46 1012.1
20260505072559 68 0 0.0 0.0 0.00 0.00 0.00 46 1012.2
20260505072058 68 0 0.0 0.0 0.00 0.00 0.00 46 1012.3
20260505071617 68 0 0.0 0.0 0.00 0.00 0.00 47 1012.2
20260505071059 68 0 0.0 0.0 0.00 0.00 0.00 46 1012.4
20260505070601 69 0 0.0 0.0 0.00 0.00 0.00 46 1012.3
20260505070111 69 0 0.0 0.0 0.00 0.00 0.00 45 1012.4
20260505065559 69 0 0.0 0.0 0.00 0.00 0.00 44 1012.2
20260505065058 69 0 0.0 0.0 0.00 0.00 0.00 44 1012.3
20260505064609 69 0 0.0 1.0 0.00 0.00 0.00 43 1012.1
20260505064101 70 0 0.0 1.0 0.00 0.00 0.00 43 1012.1
20260505063559 70 261 0.0 2.0 0.00 0.00 0.00 44 1012.3
20260505063058 70 0 0.0 2.0 0.00 0.00 0.00 43 1012.3
20260505062558 70 276 1.0 3.0 0.00 0.00 0.00 44 1012.2
20260505062101 70 256 0.0 4.0 0.00 0.00 0.00 43 1012.3
20260505061602 70 234 1.0 4.0 0.00 0.00 0.00 43 1012.3
20260505061059 70 266 1.0 3.0 0.00 0.00 0.00 44 1012.1
20260505060559 70 274 0.0 2.0 0.00 0.00 0.00 43 1012.3
20260505060059 70 0 0.0 1.0 0.00 0.00 0.00 43 1012.0
20260505055559 70 0 0.0 1.0 0.00 0.00 0.00 45 1011.9
20260505055059 70 0 0.0 3.0 0.00 0.00 0.00 44 1012.0
20260505054602 70 285 0.0 3.0 0.00 0.00 0.00 44 1012.2
20260505054101 70 254 2.0 3.0 0.00 0.00 0.00 46 1012.2
20260505053559 70 261 1.0 2.0 0.00 0.00 0.00 46 1012.3
20260505053106 71 245 0.0 1.0 0.00 0.00 0.00 45 1012.3
20260505052558 71 0 0.0 1.0 0.00 0.00 0.00 45 1012.2
20260505052100 71 0 0.0 1.0 0.00 0.00 0.00 46 1012.2
20260505051559 71 0 0.0 5.0 0.00 0.00 0.00 46 1012.3
20260505051059 71 0 1.0 5.0 0.00 0.00 0.00 47 1012.3
20260505050559 71 165 3.0 7.0 0.00 0.00 0.00 47 1012.5
20260505041601 72 252 1.0 4.0 0.00 0.00 0.00 44 1012.4
20260505041058 72 253 2.0 3.0 0.00 0.00 0.00 43 1012.5
20260505040602 72 291 1.0 3.0 0.00 0.00 0.00 42 1012.5
20260505040106 72 205 1.0 3.0 0.00 0.00 0.00 41 1012.5
20260505035601 72 250 1.0 5.0 0.00 0.00 0.00 41 1012.4
20260505035101 72 250 1.0 5.0 0.00 0.00 0.00 40 1012.3
20260505034601 72 220 2.0 5.0 0.00 0.00 0.00 40 1012.2
20260505034059 72 164 3.0 5.0 0.00 0.00 0.00 40 1012.1
20260505033602 72 181 2.0 4.0 0.00 0.00 0.00 40 1012.0
20260505033101 72 264 2.0 4.0 0.00 0.00 0.00 40 1012.0
20260505032559 72 241 1.0 6.0 0.00 0.00 0.00 39 1011.9
20260505032058 72 240 2.0 6.0 0.00 0.00 0.00 39 1011.9
20260505031601 72 255 2.0 4.0 0.00 0.00 0.00 39 1011.8
20260505031058 72 233 1.0 3.0 0.00 0.00 0.00 38 1011.8
20260505030558 72 194 2.0 3.0 0.00 0.00 0.00 38 1011.7
20260505030105 72 176 1.0 3.0 0.00 0.00 0.00 37 1011.7
20260505025559 72 213 1.0 4.0 0.00 0.00 0.00 37 1011.6
20260505025059 73 179 1.0 4.0 0.00 0.00 0.00 37 1011.6
20260505024558 73 219 2.0 5.0 0.00 0.00 0.00 36 1011.6
20260505024100 73 217 3.0 7.0 0.00 0.00 0.00 36 1011.5
20260505023558 73 173 4.0 7.0 0.00 0.00 0.00 36 1011.6
20260505023108 73 185 4.0 8.0 0.00 0.00 0.00 36 1011.6
20260505022559 73 219 4.0 8.0 0.00 0.00 0.00 36 1011.6
20260505022100 73 214 3.0 7.0 0.00 0.00 0.00 36 1011.5
20260505021602 73 248 3.0 7.0 0.00 0.00 0.00 36 1011.4
20260505021058 74 188 3.0 7.0 0.00 0.00 0.00 36 1011.5
20260505020558 74 217 3.0 7.0 0.00 0.00 0.00 36 1011.5
20260505015559 74 168 4.0 8.0 0.00 0.00 0.00 34 1011.4
20260505015102 74 217 3.0 7.0 0.00 0.00 0.00 34 1011.6
20260505014602 74 190 3.0 7.0 0.00 0.00 0.00 35 1011.5
20260505014058 74 167 4.0 6.0 0.00 0.00 0.00 34 1011.4
20260505013558 74 198 4.0 6.0 0.00 0.00 0.00 34 1011.5
20260505013059 74 200 3.0 6.0 0.00 0.00 0.00 35 1011.4
20260505012600 74 146 3.0 7.0 0.00 0.00 0.00 35 1011.4
20260505012104 74 146 3.0 7.0 0.00 0.00 0.00 35 1011.3
20260505011601 74 161 3.0 7.0 0.00 0.00 0.00 35 1011.3
20260505011058 75 189 3.0 9.0 0.00 0.00 0.00 35 1011.5
20260505010559 75 172 5.0 9.0 0.00 0.00 0.00 35 1011.5
20260505010105 75 198 4.0 9.0 0.00 0.00 0.00 36 1011.5
20260505005604 75 198 4.0 6.0 0.00 0.00 0.00 36 1011.5
20260505005059 75 92 3.0 8.0 0.00 0.00 0.00 38 1011.6
20260505004601 75 141 4.0 8.0 0.00 0.00 0.00 39 1011.6
20260505004058 75 141 4.0 8.0 0.00 0.00 0.00 39 1011.6
20260505003601 75 91 4.0 8.0 0.00 0.00 0.00 38 1011.6
20260505003105 76 206 4.0 8.0 0.00 0.00 0.00 38 1011.6
20260505002558 76 160 4.0 10.0 0.00 0.00 0.00 37 1011.7
20260505002058 76 173 4.0 11.0 0.00 0.00 0.00 37 1011.7
20260505001559 76 141 5.0 11.0 0.00 0.00 0.00 38 1011.8
20260505001059 76 127 6.0 11.0 0.00 0.00 0.00 38 1011.7
20260505000559 76 134 5.0 10.0 0.00 0.00 0.00 38 1011.7
20260505000111 76 151 6.0 12.0 0.00 0.00 0.00 37 1011.7
20260504235559 76 202 6.0 12.0 0.00 0.00 0.00 37 1011.7
20260504235059 76 139 4.0 10.0 0.00 0.00 0.00 38 1011.6
20260504234558 76 126 4.0 9.0 0.00 0.00 0.00 38 1011.7
20260504234059 77 149 5.0 9.0 0.00 0.00 0.00 38 1011.8
20260504233558 77 125 6.0 9.0 0.00 0.00 0.00 37 1011.7
20260504233102 77 134 4.0 11.0 0.00 0.00 0.00 37 1011.6
20260504232559 77 140 5.0 11.0 0.00 0.00 0.00 37 1011.6
20260504232058 78 171 5.0 11.0 0.00 0.00 0.00 37 1011.6
20260504231559 78 158 5.0 10.0 0.00 0.00 0.00 37 1011.5
20260504231058 78 186 4.0 8.0 0.00 0.00 0.00 38 1011.5
20260504230556 77 122 4.0 14.0 0.00 0.00 0.00 39 1011.6
20260504230059 78 172 4.0 14.0 0.00 0.00 0.00 38 1011.6
20260504225602 78 153 6.0 10.0 0.00 0.00 0.00 38 1011.6
20260504225102 78 105 4.0 9.0 0.00 0.00 0.00 39 1011.7
20260504224602 78 195 4.0 9.0 0.00 0.00 0.00 39 1011.7
20260504224058 78 186 3.0 9.0 0.00 0.00 0.00 40 1011.7
20260504223559 78 186 3.0 11.0 0.00 0.00 0.00 39 1011.8
20260504223059 77 233 3.0 11.0 0.00 0.00 0.00 40 1011.8
20260504222559 77 70 3.0 7.0 0.00 0.00 0.00 40 1011.9
20260504222058 77 168 4.0 7.0 0.00 0.00 0.00 40 1012.1
20260504221558 77 82 3.0 7.0 0.00 0.00 0.00 40 1012.1
20260504221059 78 140 3.0 9.0 0.00 0.00 0.00 39 1012.0
20260504220559 78 117 2.0 9.0 0.00 0.00 0.00 38 1012.1
20260504220118 78 143 3.0 8.0 0.00 0.00 0.00 38 1012.2
20260504215558 77 137 4.0 9.0 0.00 0.00 0.00 40 1012.4
20260504215101 77 247 4.0 9.0 0.00 0.00 0.00 41 1012.6
20260504214559 78 110 4.0 11.0 0.00 0.00 0.00 39 1012.5
20260504214058 77 84 6.0 11.0 0.00 0.00 0.00 39 1012.7
20260504213559 77 172 4.0 13.0 0.00 0.00 0.00 39 1012.8
20260504213101 78 176 5.0 13.0 0.00 0.00 0.00 37 1013.0
20260504212556 78 141 6.0 10.0 0.00 0.00 0.00 38 1013.1
20260504212056 78 138 5.0 12.0 0.00 0.00 0.00 38 1012.9
20260504211558 78 200 6.0 12.0 0.00 0.00 0.00 37 1012.9
20260504211059 78 203 5.0 12.0 0.00 0.00 0.00 38 1012.9
20260504210559 78 245 6.0 11.0 0.00 0.00 0.00 37 1013.2
20260504210058 77 230 4.0 9.0 0.00 0.00 0.00 39 1013.3
20260504205559 77 136 5.0 12.0 0.00 0.00 0.00 39 1013.2
20260504205059 76 136 5.0 12.0 0.00 0.00 0.00 40 1013.3
20260504204556 76 120 6.0 11.0 0.00 0.00 0.00 40 1013.2
20260504204058 76 158 7.0 10.0 0.00 0.00 0.00 39 1013.3
20260504203558 76 167 6.0 11.0 0.00 0.00 0.00 39 1013.4
20260504203058 76 209 5.0 11.0 0.00 0.00 0.00 39 1013.5
20260504202558 76 149 6.0 12.0 0.00 0.00 0.00 38 1013.5
20260504202059 76 160 6.0 12.0 0.00 0.00 0.00 38 1013.6
20260504201559 76 203 5.0 10.0 0.00 0.00 0.00 39 1013.6
20260504201059 75 140 5.0 10.0 0.00 0.00 0.00 40 1013.6
20260504200559 75 155 6.0 10.0 0.00 0.00 0.00 40 1013.4
20260504195558 75 107 5.0 11.0 0.00 0.00 0.00 40 1013.5
20260504195059 75 206 7.0 17.0 0.00 0.00 0.00 39 1013.7
20260504194559 75 197 6.0 17.0 0.00 0.00 0.00 40 1013.7
20260504194059 76 131 7.0 13.0 0.00 0.00 0.00 39 1013.6
20260504193559 76 94 6.0 13.0 0.00 0.00 0.00 39 1013.5
20260504193100 76 113 7.0 13.0 0.00 0.00 0.00 39 1013.3
20260504192558 75 205 5.0 12.0 0.00 0.00 0.00 40 1013.6
20260504192058 75 215 5.0 11.0 0.00 0.00 0.00 40 1013.6
20260504191601 75 172 5.0 11.0 0.00 0.00 0.00 41 1013.6
20260504191058 75 175 4.0 15.0 0.00 0.00 0.00 41 1013.5
20260504190558 75 208 6.0 15.0 0.00 0.00 0.00 40 1013.5
20260504190111 75 159 5.0 9.0 0.00 0.00 0.00 40 1013.4
20260504185602 75 201 4.0 9.0 0.00 0.00 0.00 40 1013.2
20260504185059 75 178 3.0 10.0 0.00 0.00 0.00 40 1013.1
20260504184614 75 212 7.0 10.0 0.00 0.00 0.00 39 1013.6
20260504184059 75 229 3.0 8.0 0.00 0.00 0.00 41 1013.3
20260504183559 75 116 4.0 11.0 0.00 0.00 0.00 41 1013.5
20260504183101 75 117 6.0 11.0 0.00 0.00 0.00 41 1013.9
20260504182558 75 238 5.0 11.0 0.00 0.00 0.00 41 1014.0
20260504182058 75 226 6.0 10.0 0.00 0.00 0.00 40 1013.8
20260504181559 74 186 3.0 7.0 0.00 0.00 0.00 43 1014.1
20260504181059 74 186 1.0 9.0 0.00 0.00 0.00 44 1013.8
20260504180558 73 221 3.0 10.0 0.00 0.00 0.00 45 1013.7